Wind_Speed
21 21 21 19 18 18 17 15 15 14 14 15 15 15 15 15 20 19 22 18 15 26 22 16 17 22 25 21 22 21 16 17 26 24 20 7 10 14 5 7 5 10 14 10 13
24 24 23 21 19 17 17 16 16 16 15 15 16 16 15 15 19 26 31 28 24 19 15 19 17 19 17 21 18 19 17 26 23 22 19 18 14 10 12 9 11 4 11 4 9
24 25 26 24 21 19 17 15 16 16 15 15 15 15 14 12 13 8 4 26 32 25 20 22 20 19 21 18 22 23 20 19 25 24 23 16 9 13 16 10 10 13 11 10 8
22 23 24 26 25 22 19 17 15 15 15 15 15 13 12 8 4 5 2 10 22 18 16 23 19 21 21 22 22 23 22 23 24 23 19 11 15 13 18 11 12 6 7 5 4
22 24 25 26 27 26 23 17 15 14 14 14 13 11 8 9 13 3 2 9 14 18 19 18 19 20 21 20 22 21 21 20 21 25 9 8 15 14 15 10 11 15 9 4 4
22 24 25 27 28 28 28 23 17 15 14 13 11 10 8 13 6 6 6 9 13 21 19 24 13 16 17 21 20 15 19 18 18 19 17 13 15 15 19 16 12 16 13 11 11
23 24 25 27 28 29 29 29 18 16 14 12 10 8 12 19 1 1 7 10 15 19 15 20 21 15 18 16 19 13 9 13 20 15 17 15 20 22 18 18 18 19 11 17 14
26 26 27 28 28 30 30 30 19 14 14 11 8 8 9 7 22 13 10 12 13 13 14 11 13 13 12 15 12 15 14 16 17 19 15 17 20 19 20 19 20 13 14 13 12
27 28 29 30 30 31 31 28 12 12 11 7 6 10 9 7 12 13 12 11 9 12 11 8 9 13 14 13 14 13 15 20 19 20 19 21 19 17 19 21 20 14 13 14 13
29 30 32 32 34 34 31 17 7 4 2 5 14 9 11 13 14 14 12 11 9 10 10 9 8 12 14 13 14 13 17 18 19 18 15 16 18 15 16 6 7 10 12 15 10
30 31 34 38 33 28 25 8 4 6 13 10 11 9 2 16 13 14 15 9 10 11 11 13 11 15 18 18 18 20 18 15 15 18 18 16 15 14 15 13 13 14 13 12 12
32 35 39 35 29 26 17 8 15 13 12 23 21 16 23 3 7 11 16 11 13 13 14 13 15 16 18 18 19 20 20 14 16 14 8 9 12 14 15 18 15 15 13 13 12
37 37 41 34 31 21 19 20 13 17 7 15 21 19 16 9 11 13 16 15 13 14 16 16 19 20 16 15 15 11 14 13 18 16 15 16 17 16 20 18 17 15 14 14 15
36 43 40 35 11 9 13 17 13 9 5 7 7 8 16 13 13 19 21 14 15 18 15 15 19 12 9 13 15 15 16 17 17 15 13 12 14 17 21 20 19 16 13 12 14
39 46 31 12 14 6 8 3 3 2 4 6 11 13 14 11 3 15 14 12 17 17 10 15 16 13 16 16 15 16 16 16 16 13 16 19 13 16 16 14 16 17 17 14 11
41 44 20 6 8 12 10 6 5 6 4 6 8 10 15 16 11 11 9 7 12 16 17 17 20 13 9 13 14 13 15 15 13 11 14 18 17 17 16 18 18 16 17 12 11
44 29 12 11 8 8 7 6 5 6 7 3 4 13 16 15 17 13 16 14 11 10 13 16 20 14 12 11 13 15 13 10 12 13 14 20 16 15 16 19 19 11 10 7 10
43 16 9 12 11 9 8 7 7 7 8 4 5 5 9 9 11 16 15 15 18 16 11 12 13 15 15 16 13 13 12 12 16 14 15 14 16 4 12 6 7 7 14 12 8
35 15 8 2 5 5 7 6 5 9 11 10 12 11 14 9 7 7 14 14 8 14 15 14 20 15 15 18 15 18 17 16 16 18 16 17 23 12 8 12 11 12 10 9 10
19 12 4 0 3 9 9 10 3 7 10 11 12 11 7 4 2 5 3 7 7 6 7 8 10 8 13 11 18 16 9 9 9 17 21 15 18 10 10 5 12 8 1 9 9
7 5 7 2 4 7 8 5 6 10 6 8 13 13 15 10 7 9 5 7 8 7 7 9 7 11 16 15 15 13 13 12 12 13 4 6 6 7 9 12 7 2 3 6 2
7 4 6 2 6 6 4 5 4 6 8 8 7 10 11 12 15 10 7 8 8 10 4 5 5 10 17 18 16 18 20 17 9 14 12 13 15 12 1 10 12 11 7 5 9
6 10 6 2 3 1 9 5 4 4 9 9 9 8 9 13 11 10 9 12 2 3 4 3 3 8 11 15 22 14 13 14 12 17 20 13 9 10 12 14 11 13 13 12 11
5 4 3 3 1 8 11 9 4 8 6 7 10 11 9 12 9 7 12 2 4 5 8 2 7 14 12 16 10 8 11 16 8 5 10 17 20 15 6 6 8 12 16 15 12
4 3 3 4 6 7 7 11 8 7 7 9 6 8 7 5 12 14 7 13 5 7 1 3 8 15 19 23 23 24 20 18 18 15 11 14 17 14 12 11 17 18 15 13 10
4 4 8 10 3 7 2 7 6 7 6 10 7 10 10 8 10 16 15 9 8 3 5 3 5 13 18 17 21 23 22 20 21 21 23 22 24 18 14 11 6 4 7 9 7
15 9 6 7 6 7 3 6 7 6 6 4 6 9 11 9 8 11 13 14 12 13 7 2 3 5 10 15 15 15 17 18 18 20 15 17 17 11 5 2 5 8 11 13 12
Wind_Direction
2 357 354 337 327 321 314 307 303 297 294 291 289 285 286 293 295 281 251 230 238 251 259 282 241 222 228 239 228 224 233 237 242 235 252 205 236 232 244 333 204 230 83 111 131
8 6 2 353 336 323 314 307 303 301 299 301 302 303 300 306 297 276 252 242 248 248 238 239 229 210 219 226 225 224 227 237 241 253 262 269 213 204 264 253 276 247 97 124 166
4 5 4 359 352 333 317 307 302 299 301 297 299 302 305 321 284 250 291 227 230 242 235 236 238 208 220 217 222 222 237 234 248 249 254 293 205 185 238 201 237 245 195 170 194
357 358 359 0 354 350 328 310 300 295 291 291 294 301 301 300 264 68 68 185 219 226 225 244 250 212 220 223 222 226 223 244 259 247 253 255 285 185 231 216 237 269 309 11 43
350 351 352 353 352 350 344 317 299 289 286 285 290 301 304 237 254 253 178 185 201 211 212 232 231 218 217 226 228 227 233 233 239 261 266 272 252 272 279 245 257 278 281 258 258
344 344 345 344 346 347 347 335 301 288 284 281 285 289 256 262 293 119 156 163 192 202 204 239 226 230 223 233 237 228 232 236 254 246 257 248 260 252 251 268 264 258 266 248 241
338 339 338 338 339 340 338 339 308 284 280 276 273 268 264 247 317 153 187 188 190 208 214 232 236 232 238 253 250 246 232 238 248 244 242 235 240 239 241 240 238 243 244 249 238
335 334 333 334 333 331 331 330 311 283 277 270 258 257 256 294 238 234 199 209 220 220 249 246 262 281 251 242 252 243 254 246 238 236 234 231 245 234 227 227 235 222 249 256 233
331 330 330 330 328 325 323 323 306 292 272 234 234 215 255 177 211 227 207 212 206 224 232 274 235 240 244 243 235 227 236 233 250 230 211 218 239 248 265 211 219 214 231 245 231
329 328 328 327 322 320 316 314 282 280 175 208 258 258 255 238 195 215 205 206 189 206 211 225 226 226 232 221 231 223 218 240 247 232 195 226 231 237 272 172 191 216 244 247 223
329 327 327 324 320 318 322 285 212 195 215 216 196 246 149 225 173 208 198 230 205 213 222 205 219 211 220 227 240 259 242 278 225 243 199 217 249 253 241 214 215 226 217 253 244
329 329 328 324 317 309 297 244 249 329 298 226 246 258 267 198 196 217 190 209 220 231 216 232 227 238 228 238 228 250 272 270 287 298 276 236 240 249 256 265 227 224 216 219 233
331 332 336 322 316 293 220 240 268 289 292 285 208 221 242 202 243 212 198 213 228 230 243 231 231 209 248 245 248 262 274 261 261 272 256 253 256 264 261 246 245 236 232 212 228
334 335 338 324 311 258 210 235 242 258 274 185 169 211 201 248 246 252 198 213 230 249 229 253 245 263 226 257 270 240 245 247 267 268 261 236 254 243 230 230 233 235 218 230 230
335 337 331 317 297 283 43 0 355 193 274 251 135 137 169 195 24 207 238 201 242 241 248 262 243 253 262 250 247 250 253 259 241 246 266 262 268 271 286 268 223 218 213 209 225
334 336 319 294 233 267 302 299 233 235 248 178 139 184 160 202 217 152 217 227 244 252 271 276 282 311 294 274 235 266 253 263 271 263 257 253 256 260 259 249 228 226 197 191 219
333 332 283 285 277 316 300 245 240 239 209 191 174 161 184 193 226 171 189 193 224 240 245 264 267 252 264 271 273 226 241 254 246 239 249 244 243 243 251 247 243 174 170 144 95
330 309 283 242 281 287 259 238 253 258 62 63 302 272 229 221 226 203 202 212 200 227 230 267 267 253 218 237 253 263 228 241 251 258 267 267 249 302 350 1 110 96 105 106 107
330 297 238 250 275 253 262 260 295 17 16 354 325 286 263 203 275 267 227 238 235 221 256 283 256 259 269 283 238 247 263 280 293 297 291 285 281 254 258 225 212 185 161 148 126
323 294 211 186 223 265 263 245 329 46 4 324 299 313 319 234 233 326 25 354 324 34 3 276 309 304 291 283 271 264 253 239 261 265 267 265 268 282 26 54 345 343 240 128 140
291 250 95 212 217 252 255 286 295 40 1 340 334 322 316 316 261 288 245 8 331 288 262 285 269 272 297 284 264 266 252 250 241 258 254 281 280 21 3 13 9 7 312 83 20
305 277 80 245 249 250 239 249 16 332 330 287 288 299 303 330 318 288 289 211 350 330 271 20 312 278 278 279 262 249 265 256 245 253 255 264 271 57 358 311 10 356 292 330 308
296 297 108 202 260 136 270 348 154 325 348 330 312 324 323 314 316 304 325 126 18 221 349 30 238 287 277 249 234 251 305 287 265 244 243 243 246 108 35 340 351 329 308 305 323
285 296 148 218 346 340 7 313 329 97 331 354 327 316 324 309 280 280 291 16 319 117 72 353 265 258 262 282 295 249 283 295 276 250 267 261 281 278 66 275 306 291 287 285 276
247 31 13 322 40 337 327 311 301 333 16 338 312 61 359 309 316 285 360 314 246 148 257 258 267 274 272 273 273 277 268 251 249 253 249 269 272 267 271 196 236 234 238 257 283
318 347 351 286 314 295 222 311 348 350 331 305 294 337 323 292 287 299 301 298 297 203 261 166 276 284 280 269 259 261 263 266 265 259 259 268 272 288 283 280 309 305 278 270 275
0 312 270 292 277 263 33 347 315 316 319 43 339 308 293 306 318 284 281 287 258 277 287 214 290 295 270 264 266 258 253 256 259 256 254 263 276 274 248 62 275 285 285 289 292
Height
803 800 797 793 790 788 786 785 783 781 780 778 776 775 773 769 765 762 753 744 745 747 746 749 745 745 746 738 732 730 747 746 737 729 717 692 708 698 695 707 705 699 705 709 713
803 799 795 792 789 786 784 782 780 778 775 773 770 768 766 764 762 751 733 738 740 742 745 744 736 738 738 734 728 730 740 735 720 710 710 696 701 705 714 715 717 707 708 714 714
804 799 795 791 787 784 781 779 777 775 773 771 769 766 765 763 756 729 724 727 734 739 741 738 729 729 734 727 725 724 730 720 715 705 700 703 700 704 715 721 717 716 710 711 714
803 799 795 790 786 782 779 776 774 773 772 770 768 766 765 767 744 724 725 726 731 737 739 737 728 726 729 728 715 726 717 717 708 701 702 711 704 708 709 713 708 706 708 713 716
804 799 794 790 785 780 776 773 771 770 769 768 767 767 765 757 736 725 725 726 730 734 733 731 721 718 725 718 713 715 712 707 705 703 701 703 711 714 712 706 707 709 711 716 719
802 798 793 789 784 779 774 770 768 766 765 765 766 767 765 752 722 723 725 727 728 731 728 723 714 710 713 712 709 702 707 706 702 704 702 714 716 715 715 709 711 713 713 715 717
799 795 791 786 781 777 772 767 764 762 762 762 764 766 757 736 722 722 725 726 724 725 719 715 709 708 707 710 697 701 713 710 709 703 708 707 723 721 710 709 714 714 714 716 712
796 792 788 783 778 773 769 764 760 759 758 759 762 765 744 720 722 721 723 723 721 721 717 713 710 707 706 703 702 713 713 727 706 703 704 710 730 708 701 706 709 711 712 709 709
794 789 784 780 775 770 765 760 756 755 755 756 760 759 734 718 719 717 719 717 719 719 717 714 713 716 712 719 721 716 732 724 715 690 699 707 721 703 691 695 703 708 711 710 707
790 785 780 776 771 767 761 757 754 754 754 757 755 753 725 713 712 714 716 714 718 717 719 721 720 724 718 720 736 725 724 714 710 693 690 703 708 701 691 693 702 706 708 707 704
786 781 776 770 765 763 759 756 752 753 750 732 727 719 704 706 708 711 714 715 714 716 727 718 726 728 715 709 707 702 699 704 690 682 691 703 708 699 693 693 700 702 704 704 703
781 776 770 763 759 758 759 748 728 726 727 719 717 715 709 705 712 709 712 719 717 725 717 719 727 707 699 699 703 704 707 709 695 684 690 696 705 699 696 693 690 694 696 700 701
777 770 763 756 751 746 745 736 730 727 729 708 700 711 710 709 711 708 708 713 717 723 715 719 704 695 701 701 705 709 715 714 713 696 690 701 710 706 693 686 684 685 688 691 696
771 765 757 751 748 739 735 728 729 727 735 706 704 701 706 707 714 700 700 710 715 717 709 708 693 698 705 710 705 720 704 707 709 712 725 696 732 701 689 687 683 683 684 688 690
767 760 753 752 744 734 727 725 725 728 742 710 698 696 699 713 701 704 696 704 718 713 708 710 701 703 708 703 700 710 696 699 701 712 718 713 720 701 681 684 677 675 676 680 683
762 756 750 747 744 733 732 729 728 738 735 701 691 700 708 707 701 695 703 701 702 711 706 706 689 694 695 692 692 693 701 703 704 714 732 716 716 706 689 677 668 664 667 674 679
756 751 748 747 735 733 730 728 736 730 684 704 695 691 701 703 704 700 710 719 727 731 729 714 704 695 693 707 693 699 714 735 739 734 730 699 704 690 668 658 655 660 666 672 679
751 745 742 741 736 734 731 730 736 695 692 687 690 688 696 691 698 694 700 710 707 717 727 734 729 698 692 703 712 707 711 729 742 728 706 677 694 685 661 653 655 658 669 677 684
748 739 736 733 735 734 729 732 725 705 701 705 701 702 694 689 696 695 695 699 694 704 722 722 718 693 698 696 698 712 718 707 725 716 720 705 683 665 659 662 662 666 672 680 688
750 740 727 730 732 733 730 727 706 704 709 710 715 698 705 711 716 716 719 703 702 700 707 712 726 705 703 698 694 700 696 728 728 749 742 712 697 691 683 683 683 677 677 684 688
750 734 727 729 728 728 730 716 709 705 713 719 717 717 708 706 711 713 718 715 708 708 708 718 727 726 716 717 716 708 711 711 720 725 754 736 712 694 696 693 690 689 686 690 695
749 734 726 727 731 720 717 721 727 714 714 715 715 715 716 714 715 713 717 727 721 718 722 720 726 731 721 705 698 708 710 711 736 735 718 725 716 694 697 699 701 706 699 699 703
751 731 725 726 735 742 718 711 714 720 723 722 722 718 719 726 731 722 717 727 725 725 733 732 737 741 723 706 700 708 711 704 707 716 720 735 722 700 708 713 712 711 705 702 700
757 734 722 721 721 729 725 721 723 720 729 729 730 728 730 733 727 734 728 724 728 732 743 743 738 741 741 722 722 736 741 734 738 741 732 714 709 698 716 724 717 718 714 705 704
753 741 744 734 733 737 732 733 729 730 732 733 734 739 748 751 739 731 734 735 733 738 742 744 745 737 730 724 720 716 714 717 720 719 729 714 708 702 700 717 715 707 702 701 700
758 755 748 742 738 738 741 732 735 737 744 743 742 748 749 754 753 753 745 750 748 745 741 748 749 738 732 722 716 712 705 703 701 699 699 700 699 691 691 692 700 700 700 700 701
760 756 753 745 736 734 731 739 742 742 744 743 751 752 750 749 748 749 747 744 745 749 748 756 756 748 737 718 720 716 701 696 692 687 692 703 695 688 700 703 703 700 699 695 692